[[{"header":{"parameterUnit":"m.s-1","parameterCategory":1,"la1":30.2991,"la2":30.254,"lo1":-89.0895,"lo2":-89.0444,"dy":0.0017,"dx":0.0017,"nx":28,"ny":28,"refTime":"2025-02-09T03:00:00:Z","depth":0,"parameterNumber":2,"parameterNumberName":"U-component_of_WINDS"},"data":[0,0,0,0,0,0,0,0,0,0,0,0,0,0,0,0,0,0,0,0,0,0,0,0,0,0,0,0,0,0,0,0,0,0,0,0,0,0,0,0,0,0,0,0,0,0,0,0,0,0,0,0,0,0,0,0,0,0,-1.7923,-1.7924,0,-1.8026,-1.8028,-1.8029,-1.8054,-1.8054,-1.8053,-1.8052,-1.8154,-1.8157,-1.8161,0,0,0,0,0,0,0,0,0,0,0,0,0,-1.7744,-1.7747,-1.7923,-1.7924,-1.7926,-1.8026,-1.8028,-1.8029,-1.8055,-1.8054,-1.8053,-1.8052,-1.8153,-1.8157,-1.8161,0,0,0,0,0,0,0,0,0,0,0,0,0,-1.7831,-1.7748,-1.7923,-1.795,-1.7954,-1.8026,-1.8028,-1.8029,-1.8055,-1.8054,-1.8053,-1.8052,-1.8152,-1.8157,-1.8162,-1.8212,0,0,-1.8177,-1.8179,0,0,0,0,0,0,0,0,-1.7826,-1.7838,-1.7945,-1.7949,-1.7953,-1.8027,-1.8002,-1.8091,-1.8055,-1.8016,-1.8052,-1.8051,-1.8112,-1.812,-1.8142,-1.8217,-1.8221,-1.8177,-1.818,-1.8182,-1.8184,0,0,0,0,0,0,0,-1.782,-1.7834,-1.7964,-1.7947,-1.7951,-1.7956,-1.7968,-1.8019,-1.8068,-1.802,-1.8022,-1.8034,-1.8114,-1.8137,-1.8144,-1.8223,-1.8177,-1.8182,-1.8185,-1.8187,-1.8344,-1.8345,0,0,0,0,0,0,-1.781,-1.7828,-1.7961,-1.7967,-1.7886,-1.7961,-1.7973,-1.8004,-1.8068,-1.8077,-1.8035,-1.8035,-1.8129,-1.8139,-1.8148,-1.8211,-1.8182,-1.8187,-1.819,-1.8342,-1.8344,-1.8345,0,0,0,0,0,0,-1.7806,-1.7822,-1.7956,-1.7898,-1.7916,-1.7965,-1.7999,-1.8006,-1.8029,-1.8079,-1.8088,-1.8049,-1.8129,-1.8141,-1.8196,-1.8215,-1.8189,-1.8194,-1.8341,-1.8343,-1.8344,-1.8337,0,0,0,0,0,0,-1.7801,-1.782,-1.7841,-1.7899,-1.7919,-1.8004,-1.8,-1.8009,-1.8038,-1.8039,-1.8095,-1.8103,-1.8129,-1.8189,-1.8201,-1.8221,-1.8198,-1.834,-1.8342,-1.8344,-1.8336,-1.8339,-1.8341,0,0,0,0,0,-1.7794,-1.7834,-1.7841,-1.7857,-1.7946,-1.8005,-1.8016,-1.8046,-1.804,-1.806,-1.8092,-1.8102,-1.8211,-1.8194,-1.8208,-1.823,-1.8338,-1.8341,-1.8344,-1.8335,-1.8338,-1.8341,0,0,0,0,0,0,-1.7775,-1.7842,-1.7851,-1.7911,-1.7952,-1.8009,-1.8036,-1.8048,-1.8091,-1.809,-1.8124,-1.8136,-1.8189,-1.8215,-1.8195,-1.8282,-1.8275,-1.828,-1.8263,-1.8266,-1.8269,-1.8261,-1.8202,0,0,0,0,0,-1.7778,-1.7821,-1.7877,-1.7924,-1.7944,-1.7987,-1.8013,-1.8033,-1.8076,-1.8093,-1.8129,-1.817,-1.8214,-1.8242,-1.8285,-1.834,-1.8352,-1.8362,-1.8365,-1.8366,-1.837,-1.8401,-1.8406,-1.8354,-1.8354,-1.8354,0,0,-1.7784,-1.7826,-1.7851,-1.7921,-1.7955,-1.7998,-1.8001,-1.8046,-1.8078,-1.81,-1.8154,-1.8182,-1.823,-1.8285,-1.8311,-1.8309,-1.8388,-1.837,-1.8371,-1.8374,-1.8404,-1.8409,-1.8414,-1.8356,-1.8355,-1.8355,0,0,-1.7816,-1.7853,-1.7896,-1.7931,-1.7983,-1.8011,-1.8021,-1.8077,-1.8096,-1.8152,-1.8169,-1.8207,-1.8281,-1.8314,-1.8341,-1.8387,-1.8396,-1.84,-1.8411,-1.8441,-1.8445,-1.8449,-1.8464,-1.8469,-1.8404,-1.8404,-1.8404,0,-1.7816,-1.7883,-1.7916,-1.7961,-1.7991,-1.8014,-1.8057,-1.8089,-1.8152,-1.8172,-1.8168,-1.8262,-1.8296,-1.8359,-1.837,-1.8392,-1.8403,-1.8393,-1.8442,-1.8446,-1.845,-1.8465,-1.8471,-1.8404,-1.8404,-1.8404,-1.8404,0,-1.7881,-1.7927,-1.7955,-1.8017,-1.805,-1.8094,-1.8132,-1.8162,-1.8178,-1.8206,-1.8261,-1.8303,-1.8354,-1.8371,-1.8387,-1.8437,-1.8433,-1.8436,-1.8428,-1.8455,-1.8469,-1.8475,-1.8404,-1.8404,-1.8404,-1.8404,0,0,-1.7903,-1.7983,-1.7993,-1.8021,-1.8081,-1.8117,-1.8161,-1.8213,-1.8237,-1.828,-1.8317,-1.838,-1.8382,-1.8413,-1.8433,-1.8459,-1.8491,-1.8458,-1.8459,-1.8462,-1.8547,-1.8544,-1.855,-1.8498,-1.85,-1.8501,-1.8543,0,-1.7942,-1.8024,-1.8055,-1.8121,-1.8163,-1.8186,-1.8225,-1.8265,-1.8292,-1.8331,-1.836,-1.8404,-1.8405,-1.8423,-1.845,-1.8481,-1.8508,-1.8479,-1.8532,-1.8533,-1.8518,-1.8558,-1.8555,-1.8593,-1.8549,-1.855,-1.855,0,-1.7999,-1.8044,-1.8115,-1.8169,-1.8188,-1.8222,-1.8272,-1.831,-1.8355,-1.8373,-1.8407,-1.8425,-1.8471,-1.8462,-1.8525,-1.8505,-1.8528,-1.8547,-1.8549,-1.8554,-1.8543,-1.8563,-1.8606,-1.8611,-1.856,-1.8559,-1.8558,0,-1.8007,-1.8085,-1.8138,-1.8161,-1.8226,-1.825,-1.8278,-1.8323,-1.8352,-1.8395,-1.8414,-1.8461,-1.8487,-1.8522,-1.8553,-1.8543,-1.8613,-1.8606,-1.8627,-1.8627,-1.864,-1.8639,-1.8686,-1.8657,-1.8657,-1.8657,-1.8656,0,-1.8047,-1.8089,-1.8142,-1.8174,-1.8222,-1.8256,-1.8302,-1.8331,-1.8371,-1.8408,-1.843,-1.8464,-1.8503,-1.8541,-1.8565,-1.8613,-1.8625,-1.864,-1.8645,-1.8637,-1.8635,-1.8652,-1.865,-1.8658,-1.8658,-1.8658,-1.8657,0,-1.8064,-1.8101,-1.816,-1.8217,-1.8232,-1.8265,-1.8313,-1.8344,-1.8373,-1.842,-1.8432,-1.8477,-1.8523,-1.8558,-1.8617,-1.8633,-1.8685,-1.8691,-1.867,-1.8672,-1.8691,-1.8689,-1.875,-1.876,-1.8725,-1.8725,-1.8726,0,-1.8087,-1.812,-1.8181,-1.8208,-1.8237,-1.828,-1.831,-1.8345,-1.8376,-1.843,-1.8454,-1.8503,-1.8544,-1.8617,-1.8654,-1.8699,-1.8706,-1.8725,-1.8713,-1.8704,-1.8705,-1.8703,-1.8706,-1.8726,-1.8726,-1.8726,-1.8726,0,-1.8123,-1.814,-1.8183,-1.8233,-1.8269,-1.8309,-1.835,-1.8371,-1.8413,-1.8446,-1.8494,-1.8526,-1.8588,-1.8635,-1.8685,-1.8712,-1.8726,-1.873,-1.8737,-1.8729,-1.8715,-1.8722,-1.8673,-1.8728,-1.8728,-1.8728,-1.8728,-1.8728,-1.8142,-1.8173,-1.8221,-1.8268,-1.8303,-1.8341,-1.8373,-1.8406,-1.8448,-1.8502,-1.852,-1.857,-1.8614,-1.8683,-1.871,-1.8749,-1.8749,-1.8759,-1.8762,-1.8764,-1.8763,-1.8709,-1.8758,-1.8758,-1.8758,-1.8758,-1.8758,0,-1.8179,-1.8211,-1.8255,-1.8312,-1.8349,-1.836,-1.8406,-1.8436,-1.848,-1.8521,-1.8561,-1.8617,-1.8663,-1.8704,-1.8751,-1.8774,-1.8782,-1.8786,-1.8784,-1.879,-1.8761,-1.875,-1.8779,-1.8779,-1.8779,-1.8779,-1.8779,-1.8779,-1.8202,-1.8254,-1.8276,-1.8345,-1.8377,-1.8428,-1.8453,-1.8487,-1.852,-1.8582,-1.8621,-1.8647,-1.8688,-1.8739,-1.8781,-1.8792,-1.8808,-1.881,-1.8822,-1.8794,-1.8792,-1.8789,-1.8779,-1.8813,-1.8813,-1.8847,-1.8847,-1.8848]},{"header":{"parameterUnit":"m.s-1","parameterCategory":1,"la1":30.2991,"la2":30.254,"lo1":-89.0895,"lo2":-89.0444,"dy":0.0017,"dx":0.0017,"nx":28,"ny":28,"refTime":"2025-02-09T03:00:00:Z","depth":0,"parameterNumber":3,"parameterNumberName":"V-component_of_WINDS"},"data":[0,0,0,0,0,0,0,0,0,0,0,0,0,0,0,0,0,0,0,0,0,0,0,0,0,0,0,0,0,0,0,0,0,0,0,0,0,0,0,0,0,0,0,0,0,0,0,0,0,0,0,0,0,0,0,0,0,0,0.6492,0.6491,0,0.6479,0.6479,0.6479,0.6457,0.6456,0.6456,0.6455,0.6443,0.6443,0.6443,0,0,0,0,0,0,0,0,0,0,0,0,0,0.6497,0.6497,0.6492,0.6491,0.6491,0.6479,0.6479,0.6479,0.6457,0.6456,0.6456,0.6455,0.6443,0.6443,0.6443,0,0,0,0,0,0,0,0,0,0,0,0,0,0.6491,0.6497,0.6492,0.6479,0.6478,0.6479,0.6479,0.6479,0.6457,0.6456,0.6456,0.6455,0.6443,0.6443,0.6443,0.6456,0,0,0.6443,0.6443,0,0,0,0,0,0,0,0,0.6491,0.649,0.6481,0.648,0.6478,0.6469,0.6476,0.6471,0.6457,0.6465,0.6455,0.6455,0.6452,0.6451,0.645,0.6455,0.6455,0.6443,0.6443,0.6443,0.6443,0,0,0,0,0,0,0,0.6492,0.6491,0.6487,0.6481,0.6479,0.6474,0.6472,0.6475,0.6462,0.6464,0.6462,0.6461,0.6451,0.645,0.645,0.6455,0.6443,0.6443,0.6443,0.6443,0.6469,0.647,0,0,0,0,0,0,0.6494,0.6491,0.6487,0.6486,0.6483,0.6474,0.6472,0.6472,0.6462,0.646,0.6462,0.646,0.645,0.645,0.6449,0.6463,0.6443,0.6443,0.6443,0.6469,0.6469,0.647,0,0,0,0,0,0,0.6494,0.6494,0.6487,0.6488,0.6487,0.6475,0.6475,0.6473,0.6472,0.646,0.6458,0.6463,0.645,0.6449,0.6454,0.6463,0.6443,0.6444,0.6468,0.6469,0.647,0.6492,0,0,0,0,0,0,0.6494,0.6494,0.6498,0.6489,0.6487,0.6493,0.6475,0.6473,0.6472,0.647,0.6461,0.6459,0.6449,0.6454,0.6454,0.6462,0.6444,0.6467,0.6468,0.6469,0.6491,0.6494,0.6496,0,0,0,0,0,0.6495,0.6505,0.6499,0.6498,0.6493,0.6493,0.6492,0.6481,0.6472,0.6477,0.647,0.6459,0.6462,0.6455,0.6455,0.6463,0.6466,0.6468,0.6469,0.6489,0.6493,0.6496,0,0,0,0,0,0,0.6517,0.6504,0.6496,0.6504,0.65,0.6489,0.6495,0.6486,0.6484,0.6482,0.6468,0.6466,0.6473,0.6469,0.6461,0.6475,0.6462,0.6464,0.6478,0.6481,0.6484,0.6485,0.6444,0,0,0,0,0,0.6523,0.6524,0.6513,0.6521,0.6519,0.6507,0.6507,0.6499,0.6494,0.6492,0.6485,0.6481,0.648,0.6481,0.648,0.649,0.6488,0.6495,0.6498,0.6501,0.6502,0.6507,0.651,0.6475,0.6475,0.6475,0,0,0.6535,0.6528,0.6529,0.6525,0.6521,0.6522,0.6506,0.6509,0.651,0.6492,0.6497,0.6491,0.6486,0.6493,0.6496,0.649,0.6512,0.6503,0.6505,0.6505,0.6509,0.6512,0.6515,0.6476,0.6476,0.6475,0,0,0.6558,0.6553,0.6559,0.6555,0.6548,0.654,0.6542,0.6533,0.6528,0.6533,0.652,0.6521,0.6521,0.6517,0.6515,0.6537,0.6527,0.6537,0.6552,0.6557,0.656,0.6562,0.657,0.6573,0.6538,0.6538,0.6538,0,0.6573,0.6575,0.6563,0.6566,0.6565,0.6549,0.6555,0.6552,0.6546,0.6545,0.6538,0.6537,0.6532,0.6539,0.6544,0.6543,0.6544,0.6538,0.656,0.6563,0.6565,0.6572,0.6575,0.654,0.6539,0.6539,0.6539,0,0.6595,0.6597,0.6602,0.6596,0.6596,0.66,0.6589,0.6589,0.6581,0.6574,0.6579,0.6572,0.657,0.6571,0.6563,0.6576,0.6572,0.6563,0.655,0.657,0.6576,0.6578,0.6541,0.6541,0.6541,0.654,0,0,0.6631,0.6619,0.6621,0.6618,0.661,0.6611,0.6615,0.6612,0.6613,0.6609,0.6612,0.6612,0.6604,0.6602,0.6593,0.6598,0.6615,0.6588,0.6587,0.6593,0.6629,0.6636,0.6639,0.6608,0.6609,0.6609,0.6629,0,0.6652,0.6658,0.6647,0.6656,0.6657,0.6642,0.6646,0.6641,0.6635,0.6635,0.6628,0.6628,0.6617,0.6616,0.6619,0.6612,0.6622,0.661,0.6611,0.6611,0.6613,0.6642,0.665,0.6669,0.6632,0.6632,0.6632,0,0.6678,0.6675,0.6684,0.6675,0.6675,0.6678,0.6675,0.6675,0.667,0.6665,0.6662,0.6652,0.6656,0.6643,0.6648,0.664,0.664,0.6636,0.6637,0.6636,0.6623,0.6643,0.6675,0.6678,0.6636,0.6636,0.6636,0,0.6703,0.6702,0.6707,0.6705,0.6694,0.6697,0.6693,0.6687,0.6686,0.6683,0.6682,0.668,0.6679,0.6677,0.6667,0.6659,0.6673,0.6659,0.6669,0.6669,0.6672,0.6672,0.6705,0.6672,0.6672,0.6672,0.6672,0,0.6727,0.6733,0.6718,0.6721,0.6727,0.6715,0.6721,0.6716,0.671,0.6712,0.6699,0.6701,0.6687,0.6688,0.668,0.6684,0.6684,0.668,0.6678,0.6681,0.6682,0.6681,0.6679,0.6673,0.6673,0.6672,0.6672,0,0.6757,0.6747,0.6751,0.6741,0.6739,0.6744,0.6735,0.6738,0.673,0.6733,0.6733,0.6721,0.6721,0.6711,0.6709,0.6703,0.6711,0.6707,0.6713,0.6712,0.6722,0.6721,0.6755,0.6759,0.6724,0.6724,0.6724,0,0.6773,0.6777,0.6768,0.6768,0.6764,0.6765,0.6764,0.6752,0.6751,0.6745,0.6748,0.6747,0.6746,0.6746,0.6738,0.6736,0.6731,0.6743,0.6731,0.6734,0.6731,0.6731,0.6732,0.6746,0.6746,0.6747,0.6747,0,0.6803,0.6798,0.6797,0.6794,0.6793,0.6791,0.6787,0.6788,0.6775,0.6775,0.6775,0.6773,0.6771,0.677,0.6767,0.6762,0.6753,0.6751,0.6753,0.6756,0.676,0.6758,0.672,0.675,0.675,0.675,0.6749,0.6749,0.6826,0.6829,0.6823,0.6822,0.6819,0.6816,0.6817,0.681,0.681,0.6807,0.68,0.6801,0.6795,0.6789,0.6786,0.6786,0.678,0.6783,0.6784,0.6785,0.6787,0.676,0.6786,0.6786,0.6786,0.6785,0.6785,0,0.6856,0.6851,0.685,0.6846,0.6845,0.6836,0.6832,0.6832,0.6833,0.6828,0.6827,0.6826,0.6825,0.6817,0.6815,0.6817,0.6812,0.6817,0.6817,0.6816,0.6792,0.6791,0.6821,0.6821,0.6821,0.6821,0.6821,0.6821,0.6871,0.6875,0.6869,0.6872,0.6867,0.6868,0.6866,0.6863,0.6859,0.686,0.6859,0.6853,0.6847,0.6844,0.6843,0.684,0.684,0.6846,0.6842,0.6821,0.6817,0.6814,0.6813,0.6846,0.6847,0.6866,0.6866,0.6866]}]]